sat.trackr.live / text

‹ back to catalog

STARLINK-37400

NORAD 68777 · 2026-086M

PAYLOAD ACTIVE UNKNOWN

§ Identity

Operator
Country
US
Launch date
2026-04-19
Launch site
AFWTR
Launch vehicle
Mass (kg)
RCS (m²)

Purposes: comms

External: N2YO · Heavens-Above · Gunter

§ Orbital elements

Epoch: 2026-05-25T04:00:03.998880Z

Period
92.26 min
Inclination
97.2846°
Eccentricity
0.0001271
Mean motion
15.60747925 rev/d
Perigee alt
384.6 km
Apogee alt
386.4 km
Semi-major
6,763.6 km
B*
-2.5688e-2
RAAN
182.0118°
Arg perigee
97.7881°
Mean anomaly
220.0663°
Rev number
607

§ Raw data

STARLINK-374001 68777U 26086M   26145.16671295 -.01888010  00000+0 -25688-1 0  99992 68777  97.2846 182.0118 0001271  97.7881 220.0663 15.60747925  6073

JSON: /api/v1/satellites/68777 · /tle

For live sub-satellite position, see the globe view (requires WebGL).

§ Visibility from observer

Set your observer location to see the next 7 days of passes ≥ 10°. The values pass through the URL so the page stays shareable.

No JS? Fill the form by hand. The geolocation button needs JavaScript.